Hourly Data Report for October 19, 2014

All times are specified in Local Standard Time (LST). Add 1 hour to adjust for Daylight Saving Time where and when it is observed.

SAINT JOHN A
NEW BRUNSWICK

45°18'58.000" N
65°53'24.000" W
108.80 m
8104901
71609
YSJ

Download Data

Hourly Data (October 2014)
Hourly Data Report for October 19, 2014
Temp Definition
°C
Dew Point Temp Definition
°C
Rel Hum Definition
%
Wind Dir Definition
10's deg

Wind Spd Definition
km/h
Visibility Definition
km
Stn Press Definition
kPa
Hmdx Definition


Wind Chill Definition


Weather Definition


TIME
00:00 Legend Double Dagger 14.3 14.3 100 21 18 4.8 98.60     Fog
01:00 Legend Double Dagger 14.0 14.0 100 20 14 4.8 98.57     Fog
02:00 Legend Double Dagger 13.9 13.9 100 19 14 4.0 98.55     Fog
03:00 Legend Double Dagger 13.7 13.7 100 21 13 1.2 98.55     Rain,Fog
04:00 Legend Double Dagger 13.6 13.6 100 23 12 4.8 98.57     Rain,Fog
05:00 Legend Double Dagger 13.2 13.2 100 23 10 9.7 98.61     Fog
06:00 Legend Double Dagger 12.2 12.2 100 22 10 12.9 98.67     LegendNANA
07:00 Legend Double Dagger 12.5 12.0 97 25 8 19.3 98.75     LegendNANA
08:00 Legend Double Dagger 12.3 11.5 95 27 10 24.1 98.87     Mostly Cloudy
09:00 Legend Double Dagger 12.4 11.0 91 29 16 24.1 98.96     LegendNANA
10:00 Legend Double Dagger 10.6 7.7 82 32 22 24.1 99.06     LegendNANA
11:00 Legend Double Dagger 11.1 6.9 75 34 21 24.1 99.10     Mostly Cloudy
12:00 Legend Double Dagger 11.8 5.9 67 32 17 24.1 99.10     LegendNANA
13:00 Legend Double Dagger 13.0 5.0 58 32 23 24.1 99.00     LegendNANA
14:00 Legend Double Dagger 11.9 4.4 60 32 13 24.1 99.07     Mostly Cloudy
15:00 Legend Double Dagger 11.4 4.2 61 32 9 24.1 99.14     LegendNANA
16:00 Legend Double Dagger 10.7 3.5 61 31 14 24.1 99.18     LegendNANA
17:00 Legend Double Dagger 9.7 3.3 64 32 15 24.1 99.19     Mostly Cloudy
18:00 Legend Double Dagger 8.7 2.1 63 33 21 24.1 99.25     LegendNANA
19:00 Legend Double Dagger 7.1 2.8 74 33 25 24.1 99.22     Rain Showers
20:00 Legend Double Dagger 6.7 2.6 75 34 21 24.1 99.17     Cloudy
21:00 Legend Double Dagger 6.1 2.0 75 33 29 24.1 99.20     LegendNANA
22:00 Legend Double Dagger 4.8 1.7 80 1 28 24.1 99.18     Rain Showers
23:00 Legend Double Dagger 4.8 1.3 78 34 19 24.1 99.22     Rain Showers

Notes on Data Quality.

Legend

  • E = Estimated
  • M = Missing
  • NA = Not Available
  • ‡ = Partner data that is not subject to review by the National Climate Archives
Date modified: